Погода в Хаджи

Россия / Республика Мордовия     54°19′36″N   45°15′07″E
темп.,
°C
ветер,
м/с
пор.,
м/с
влажн.,
%
обл.,
%
осадки,
мм/ч
давл.,
гПа
погр.,
м
14 августа, вс
вс1400:00+18всв2377100 0.0 102133
03:00+17всв2282100 0.0 102117
06:00+17всв257848 0.0 1022142
09:00+23в4552100 0.0 1021702
12:00+25всв4544100 0.0 10211291
15:00+26в4439100 0.0 10201463
18:00+23в3454100 0.0 102081
21:00+19в3863100 0.0 1021163
15 августа, пн
пн1500:00+17в3856100 0.0 1021140
03:00+16в3855100 0.0 1021166
06:00+16в3859100 0.0 1022206
09:00+22вюв574084 0.0 1023611
12:00+26в563496 0.0 10221416
15:00+26в563643 0.0 10221701
18:00+24в47475 0.0 1022493
21:00+18вюв35624 0.0 102366
16 августа, вт
вт1600:00+17в22654 0.0 102314
03:00+16всв22750 0.0 102415
06:00+17всв25763 0.0 1024137
09:00+23в57485 0.0 1024748
12:00+26в663799 0.0 10231811
15:00+27в563352 0.0 10222000
18:00+25в5842100 0.0 1022401
21:00+19в49605 0.0 1022146
17 августа, ср
ср1700:00+17в310676 0.0 1022177
03:00+16в376899 0.0 1021112
06:00+17вюв2663100 0.0 1022146
09:00+22вюв4544100 0.0 1021380
12:00+27вюв5634100 0.0 10201267
15:00+27в5535100 0.0 10201554
18:00+24в4742100 0.0 1020313
21:00+21в3950100 0.0 1020204
18 августа, чт
чт1800:00+21всв494999 0.0 1019238
03:00+19в4949100 0.0 1018220
06:00+19всв395064 0.0 1018244
09:00+24в61040100 0.0 1018589
12:00+27в8103460 0.0 1017899
15:00+28в893264 0.0 10161410
18:00+25в71241100 0.0 1016668
21:00+23в61448100 0.1 1017445